This demonstration page uses our WeatherBlox Daily Observations layout. Learn more.

Left ArrowRight Arrow

36.17497, -115.13722

Hourly Observations for July 3, 2022

Temp ( °F °C ) Dew Point ( °F °C ) Humidity (%) Winds ( mph kmh ) Pressure ( in mb ) Visibility ( mi km ) Precip ( " mm )
12:53 am 00:53 Clear 90 32.2 33 0.6 13 13 SSW 10 17 29.70 1006 10 16 0.00 0.00
1:53 am 01:53 Clear 88 31.1 33 0.6 14 14 SSW 8 13 29.70 1006 10 16 0.00 0.00
2:53 am 02:53 Clear 86 30 33 0.6 15 15 S 8 13 29.71 1006 10 16 0.00 0.00
3:53 am 03:53 Clear 85 29.4 34 1.1 16 16 S 13 20 29.71 1006 10 16 0.00 0.00
4:53 am 04:53 Clear 83 28.3 33 0.6 17 17 S 12 19 29.72 1006 10 16 0.00 0.00
5:53 am 05:53 Sunny 83 28.3 33 0.6 17 17 S 15 24 29.73 1007 10 16 0.00 0.00
6:53 am 06:53 Sunny 83 28.3 33 0.6 17 17 SSE 10 17 29.75 1007 10 16 0.00 0.00
7:53 am 07:53 Sunny 85 29.4 33 0.6 15 15 SSE 14 22 29.76 1008 10 16 0.00 0.00
8:53 am 08:53 Sunny 89 31.7 33 0.6 14 14 S 20 31 29.76 1008 10 16 0.00 0.00
9:53 am 09:53 Sunny 92 33.3 33 0.6 12 12 SSW 20 31 29.75 1008 10 16 0.00 0.00
10:53 am 10:53 Sunny 93 33.9 33 0.6 12 12 SSW 14 22 29.76 1008 10 16 0.00 0.00
11:53 am 11:53 Sunny 97 36.1 31 -0.6 10 10 SSW 20 31 29.75 1007 10 16 0.00 0.00
12:53 pm 12:53 Sunny 98 36.7 28 -2.2 8 8 SSW 23 37 29.73 1007 10 16 0.00 0.00
1:53 pm 13:53 Sunny 98 36.7 27 -2.8 8 8 S 16 26 29.72 1007 10 16 0.00 0.00
2:53 pm 14:53 Sunny 100 37.8 24 -4.4 7 7 SSW 21 33 29.70 1006 10 16 0.00 0.00
3:53 pm 15:53 Sunny 100 37.8 24 -4.4 7 7 SSW 20 31 29.68 1005 10 16 0.00 0.00
4:53 pm 16:53 Sunny 100 37.8 21 -6.1 6 6 SW 21 33 29.66 1005 10 16 0.00 0.00
5:53 pm 17:53 Sunny 99 37.2 18 -7.8 5 5 S 22 35 29.66 1004 10 16 0.00 0.00
6:53 pm 18:53 Sunny 97 36.1 22 -5.6 7 7 SW 16 26 29.65 1004 10 16 0.00 0.00
7:53 pm 19:53 Sunny 96 35.6 23 -5 7 7 SSW 13 20 29.67 1005 10 16 0.00 0.00
8:53 pm 20:53 Clear 94 34.4 25 -3.9 8 8 SSW 8 13 29.67 1005 10 16 0.00 0.00
9:53 pm 21:53 Clear 92 33.3 26 -3.3 9 9 S 5 7 29.70 1006 10 16 0.00 0.00
10:53 pm 22:53 Clear 90 32.2 28 -2.2 11 11 SSW 8 13 29.71 1006 10 16 0.00 0.00
11:53 pm 23:53 Clear 88 31.1 29 -1.7 12 12 SSW 9 15 29.73 1007 10 16 0.00 0.00

Powered by AerisWeather